This is the latest recevied weather packets stored in our database for station/object KX4O-13. If no packets are shown the sender has not sent any weather packets the latest 10 day(s).
| Time | Temp. | Humidity | Pressure | Rain* | Wind** | Luminosity | Snow |
|---|---|---|---|---|---|---|---|
| 1777964453 | 11.67° C | 83% | 1010.9 hPa | 0 mm | - | 0 W/m² | - |
| 1777964154 | 11.67° C | 84% | 1010.9 hPa | 0 mm | - | 0 W/m² | - |
| 1777963855 | 11.11° C | 86% | 1010.9 hPa | 0 mm | - | 0 W/m² | - |
| 1777963554 | 11.11° C | 86% | 1010.8 hPa | 0 mm | - | 0 W/m² | - |
| 1777963254 | 10.56° C | 89% | 1010.9 hPa | 0 mm | - | 0 W/m² | - |
| 1777962954 | 10° C | 89% | 1010.8 hPa | 0 mm | - | 0 W/m² | - |
| 1777962654 | 9.44° C | 87% | 1010.8 hPa | 0 mm | - | 0 W/m² | - |
| 1777962354 | 10° C | 88% | 1010.7 hPa | 0 mm | - | 0 W/m² | - |
| 1777962054 | 10° C | 87% | 1010.7 hPa | 0 mm | - | 0 W/m² | - |
| 1777961753 | 10° C | 86% | 1010.8 hPa | 0 mm | - | 0 W/m² | - |
| 1777961456 | 10° C | 86% | 1010.6 hPa | 0 mm | - | 0 W/m² | - |
| 1777961154 | 10.56° C | 87% | 1010.7 hPa | 0 mm | - | 0 W/m² | - |
| 1777960854 | 10.56° C | 88% | 1010.7 hPa | 0 mm | - | 0 W/m² | - |
| 1777960553 | 10° C | 88% | 1010.7 hPa | 0 mm | - | 0 W/m² | - |
| 1777960256 | 10.56° C | 88% | 1010.8 hPa | 0 mm | - | 0 W/m² | - |
| 1777959954 | 10.56° C | 88% | 1010.7 hPa | 0 mm | - | 0 W/m² | - |
| 1777959654 | 10.56° C | 88% | 1010.7 hPa | 0 mm | - | 0 W/m² | - |
| 1777959354 | 10.56° C | 87% | 1010.6 hPa | 0 mm | - | 0 W/m² | - |
| 1777959054 | 10.56° C | 87% | 1010.7 hPa | 0 mm | - | 0 W/m² | - |
| 1777958754 | 10.56° C | 84% | 1010.7 hPa | 0 mm | - | 0 W/m² | - |
| 1777958454 | 10.56° C | 84% | 1010.8 hPa | 0 mm | - | 0 W/m² | - |
| 1777958154 | 11.11° C | 85% | 1010.8 hPa | 0 mm | - | 0 W/m² | - |
| 1777957856 | 10.56° C | 85% | 1010.6 hPa | 0 mm | - | 0 W/m² | - |
| 1777957554 | 10.56° C | 86% | 1010.6 hPa | 0 mm | - | 0 W/m² | - |
| 1777957254 | 10.56° C | 85% | 1010.7 hPa | 0 mm | - | 0 W/m² | - |
* Rain latest hour (hover to see other rain measurements)
** Current wind speed in m/s (hover to see current wind gust speed)